User: anonymous   Login
Location: Unspecified
(0.0000°N, 0.0000°E)
Time: 15:02:36
(UTC+00:00)
Language:

UFO 9 - Orbit

View from above orbital plane
View from above orbital plane
View from above satellite
View from above satellite

Ground track
Ground track

The orbit data is extracted from the following two-line orbital elements,

1 25501U 98058A   18130.66051827 0.00000000  00000-0  00000-0 0    04
2 25501   8.2952  32.3059 0014377 314.1881  45.7059  0.98172167    02
Epoch (UTC): 10 May 2018 15:51:08
Eccentricity: 0.0014377
inclination: 8.2952°
perigee height: 36324 km
apogee height: 36447 km
right ascension of ascending node: 32.3059°
argument of perigee: 314.1881°
revolutions per day: 0.98172167
mean anomaly at epoch: 45.7059°
orbit number at epoch: 0

The dashed part of the orbit path shows where the satellite is in the earth's shadow,  

DLR